CW3615 Weather Reports


Display with metric or nautical units.
time (UTC)temp
F
wind
direction
speed
MPH
gust
MPH
rain 1hr
in
rain 24hr
in
rain mn
in
humidity
%
barometer
mb
20260504185228 62 222 2.0 8.0 0.00 0.00 0.00 62 1011.9
20260504184550 62 229 1.0 11.0 0.00 0.00 0.00 61 1012.0
20260504184239 62 216 2.0 11.0 0.00 0.00 0.00 61 1012.0
20260504183248 63 198 4.0 9.0 0.00 0.00 0.00 61 1012.1
20260504183050 62 177 1.0 7.0 0.00 0.00 0.00 60 1012.0
20260504182233 63 166 2.0 9.0 0.00 0.00 0.00 60 1012.1
20260504181535 63 216 1.0 7.0 0.00 0.00 0.00 60 1012.1
20260504181238 63 171 1.0 7.0 0.00 0.00 0.00 60 1012.2
20260504180226 63 222 1.0 12.0 0.00 0.00 0.00 60 1012.3
20260504180050 63 227 2.0 12.0 0.00 0.00 0.00 60 1012.3
20260504175237 62 202 0.0 5.0 0.00 0.00 0.00 64 1012.3
20260504174526 62 166 1.0 7.0 0.00 0.00 0.00 62 1012.5
20260504174230 63 155 1.0 7.0 0.00 0.00 0.00 63 1012.4
20260504173241 63 140 0.0 10.0 0.00 0.00 0.00 64 1012.5
20260504173038 62 185 0.0 10.0 0.00 0.00 0.00 64 1012.5
20260504172233 62 157 1.0 9.0 0.00 0.00 0.00 64 1012.6
20260504171519 62 221 0.0 8.0 0.00 0.00 0.00 63 1012.8
20260504171222 62 223 2.0 8.0 0.00 0.00 0.00 61 1012.8
20260504170234 63 219 2.0 10.0 0.00 0.00 0.00 60 1013.0
20260504160243 63 202 1.0 7.0 0.00 0.00 0.00 56 1013.4
20260504150246 61 212 1.0 9.0 0.00 0.00 0.00 54 1014.1
20260504141248 60 217 4.0 11.0 0.00 0.00 0.00 53 1014.2
20260504140240 60 237 3.0 11.0 0.00 0.00 0.00 55 1014.2
20260504130252 57 234 0.0 9.0 0.00 0.00 0.00 62 1014.8
20260504120232 54 233 1.0 7.0 0.00 0.00 0.00 62 1014.9
20260504110227 51 238 0.0 3.0 0.00 0.00 0.00 67 1014.9
20260504100231 50 239 0.0 3.0 0.00 0.00 0.00 61 1014.7
20260504081512 49 247 0.0 0.0 0.00 0.00 0.00 61 1014.0
20260504081234 50 247 0.0 0.0 0.00 0.00 0.00 61 1014.1
20260504080229 50 247 0.0 3.0 0.00 0.00 0.00 61 1014.0
20260504070226 51 247 0.0 1.0 0.00 0.00 0.00 60 1013.6
20260504040011 44 274 0.0 0.0 0.00 0.00 0.00 67 1013.1
20260504035306 44 274 0.0 0.0 0.00 0.00 0.00 68 1013.0
20260504034539 44 274 0.0 0.0 0.00 0.00 0.00 68 1013.0
20260504034239 44 274 0.0 0.0 0.00 0.00 0.00 68 1013.0
20260504033224 44 274 0.0 0.0 0.00 0.00 0.00 68 1012.9
20260504033007 44 274 0.0 0.0 0.00 0.00 0.00 68 1012.9
20260504032237 45 274 0.0 0.0 0.00 0.00 0.00 68 1012.9
20260504031513 44 274 0.0 0.0 0.00 0.00 0.00 68 1012.9
20260504031223 45 274 0.0 0.0 0.00 0.00 0.00 68 1012.9
20260504030233 45 274 0.0 0.0 0.00 0.00 0.00 67 1012.8
20260504030041 45 274 0.0 0.0 0.00 0.00 0.00 67 1012.9
20260504025223 46 274 0.0 0.0 0.00 0.00 0.00 67 1012.9
20260504024524 45 274 0.0 0.0 0.00 0.00 0.00 65 1012.9
20260504024233 46 274 0.0 0.0 0.00 0.00 0.00 64 1012.9
20260504023222 46 274 0.0 0.0 0.00 0.00 0.00 63 1013.0
20260504023037 46 274 0.0 0.0 0.00 0.00 0.00 62 1013.0
20260504022231 46 274 0.0 0.0 0.00 0.00 0.00 64 1012.9
20260504021534 46 274 0.0 0.0 0.00 0.00 0.00 63 1012.8
20260504021248 47 274 0.0 0.0 0.00 0.00 0.00 63 1012.9
20260504020234 47 274 0.0 0.0 0.00 0.00 0.00 62 1012.8
20260504020040 47 274 0.0 0.0 0.00 0.00 0.00 61 1012.8
20260504015248 47 274 0.0 0.0 0.00 0.00 0.00 60 1012.8
20260504014540 47 274 0.0 0.0 0.00 0.00 0.00 61 1012.7
20260504014235 48 274 0.0 0.0 0.00 0.00 0.00 59 1012.7
20260504013232 48 274 0.0 0.0 0.00 0.00 0.00 61 1012.6
20260504013008 48 274 0.0 0.0 0.00 0.00 0.00 60 1012.5
20260504012248 49 274 0.0 0.0 0.00 0.00 0.00 58 1012.5
20260504011549 49 274 0.0 0.0 0.00 0.00 0.00 58 1012.4
20260504011241 50 274 0.0 0.0 0.00 0.00 0.00 56 1012.4
20260504010227 50 274 0.0 0.0 0.00 0.00 0.00 53 1012.2
20260504010020 50 274 0.0 0.0 0.00 0.00 0.00 54 1012.3
20260504005222 51 274 0.0 0.0 0.00 0.00 0.00 50 1012.1
20260504004523 52 274 0.0 0.0 0.00 0.00 0.00 49 1012.0
20260504004237 52 274 0.0 0.0 0.00 0.00 0.00 49 1012.0
20260504003232 54 274 0.0 0.0 0.00 0.00 0.00 46 1011.9
20260504003053 53 274 0.0 0.0 0.00 0.00 0.00 45 1011.9
20260504002227 55 274 0.0 0.0 0.00 0.00 0.00 40 1011.7
20260504001554 55 274 0.0 0.0 0.00 0.00 0.00 39 1011.6
20260504001243 56 274 0.0 0.0 0.00 0.00 0.00 37 1011.6
20260504000301 56 274 0.0 0.0 0.00 0.00 0.00 34 1011.5
20260504000040 56 274 0.0 0.0 0.00 0.00 0.00 34 1011.5
20260503235225 57 274 0.0 2.0 0.00 0.00 0.00 33 1011.3
20260503234559 56 283 0.0 0.0 0.00 0.00 0.00 33 1011.3
20260503234240 57 283 0.0 0.0 0.00 0.00 0.00 33 1011.2
20260503233256 58 283 0.0 3.0 0.00 0.00 0.00 32 1011.1
20260503233051 57 283 0.0 11.0 0.00 0.00 0.00 31 1011.1
20260503232230 58 273 1.0 12.0 0.00 0.00 0.00 31 1010.9
20260503231555 58 311 0.0 9.0 0.00 0.00 0.00 30 1010.9
20260503231225 58 331 0.0 9.0 0.00 0.00 0.00 30 1010.9
20260503230221 58 272 1.0 9.0 0.00 0.00 0.00 30 1010.9
20260503230024 58 211 0.0 11.0 0.00 0.00 0.00 31 1010.9
20260503224230 59 294 0.0 11.0 0.00 0.00 0.00 32 1010.8
20260503223307 59 317 4.0 16.0 0.00 0.00 0.00 29 1010.7
20260503223046 58 336 5.0 16.0 0.00 0.00 0.00 29 1010.9
20260503222229 59 235 4.0 15.0 0.00 0.00 0.00 29 1010.7
20260503221558 59 298 3.0 15.0 0.00 0.00 0.00 30 1010.6
20260503221240 59 292 0.0 13.0 0.00 0.00 0.00 31 1010.6
20260503220225 59 266 5.0 12.0 0.00 0.00 0.00 30 1010.6
20260503220026 58 290 0.0 12.0 0.00 0.00 0.00 31 1010.6
20260503215258 59 313 2.0 12.0 0.00 0.00 0.00 31 1010.6
20260503214515 58 227 3.0 13.0 0.00 0.00 0.00 31 1010.5
20260503214248 59 236 5.0 13.0 0.00 0.00 0.00 31 1010.6
20260503213233 59 277 3.0 10.0 0.00 0.00 0.00 32 1010.5
20260503213041 58 238 3.0 10.0 0.00 0.00 0.00 31 1010.5
20260503212226 59 348 1.0 16.0 0.00 0.00 0.00 31 1010.4
20260503211538 59 238 5.0 12.0 0.00 0.00 0.00 31 1010.4
20260503211236 59 326 2.0 19.0 0.00 0.00 0.00 32 1010.4
20260503210227 59 263 1.0 21.0 0.00 0.00 0.00 32 1010.2
20260503210006 58 294 6.0 21.0 0.00 0.00 0.00 31 1010.3
20260503205236 58 237 5.0 17.0 0.00 0.00 0.00 32 1010.2
20260503204508 58 317 3.0 14.0 0.00 0.00 0.00 33 1010.2
20260503204229 58 269 5.0 14.0 0.00 0.00 0.00 34 1010.3
20260503203241 58 307 1.0 20.0 0.00 0.00 0.00 35 1010.3
20260503203027 57 293 2.0 20.0 0.00 0.00 0.00 35 1010.3
20260503202226 58 269 6.0 16.0 0.00 0.00 0.00 34 1010.3
20260503201532 57 306 3.0 16.0 0.00 0.00 0.00 35 1010.5
20260503201236 58 292 8.0 16.0 0.00 0.00 0.00 34 1010.6
20260503200229 58 5 5.0 16.0 0.00 0.00 0.00 34 1010.6
20260503200058 57 256 4.0 16.0 0.00 0.00 0.00 35 1010.6
20260503195224 57 234 4.0 15.0 0.00 0.00 0.00 37 1010.6
20260503194550 56 347 3.0 15.0 0.00 0.00 0.00 36 1010.7
20260503194236 56 298 3.0 12.0 0.00 0.00 0.00 37 1010.7
20260503193230 57 271 5.0 12.0 0.00 0.00 0.00 37 1010.7
20260503193018 56 244 4.0 14.0 0.00 0.00 0.00 37 1010.7
20260503192223 57 351 5.0 18.0 0.00 0.00 0.00 38 1011.0
20260503191554 56 311 1.0 14.0 0.00 0.00 0.00 40 1011.1
20260503191239 56 299 8.0 14.0 0.00 0.00 0.00 38 1010.9
20260503190229 56 270 6.0 16.0 0.00 0.00 0.00 37 1010.9
20260503190019 55 275 3.0 16.0 0.00 0.00 0.00 38 1010.9